map of APL home
APL - Airport
Location
City:  Nampula, Nampula, Mozambique
Name:Nampula Airport
ICAO:FQNP
IATA:APL

Details
Type:Airport (Aerodrome, Airfield)
Use:Public/Civil
Latitude:1506'20"S (-15.105610)
Longitude:3916'54"E (39.281800)
Datum:WGS 1984
Elevation:1444 ft (440 m)
Variation:8.24W (WMM2015 magnetic declination)
-0.04 annual change
Runways:2
Longest:6562 × 148 ft (2000 × 45 m), paved

Time
Time Zone:UTC+2
Local Time:

Weather
METAR:FQNP 260800Z 08006KT 9999 BKN020 26/19 Q1018
TAF:FQNP 251600Z 2518/2624 14010KT 9999 FEW020
BECMG 2600/2602 VRB03KT
BECMG 2606/2608 05006KT
BECMG 2612/2614 12010KT CAVOK
BECMG 2618/2620 VRB03KT TN19/2602ZTX29/2612Z

Related Locations
Nearby:
Farthest:ITO: 11449 mi / 18426 km
Hilo [Hilo Intl], Hawaii, HI, US

Find:

   beyond  
but within

Other Information
Maps:
NOTAMs:
Links:
Sources:

  
flag of Mozambique   

Sectional Chart

Flight Planning
at skyvector.com

Satellite Image

Google Maps Satellite view

 

Copyright © 2004-2017 Karl L. Swartz. All rights reserved.
The Great Circle Mapper name and logo are trademarks of the Great Circle Mapper.
All other trademarks mentioned herein belong to their respective owners.
Please see credits for attibutions and further copyright information.

  Follow gcmap on Facebook Follow gcmap on Twitter Follow gcmap on Google+ GCmap on LinkedIn

hCard Microformat

Geo Microformat